QPF
0.00 0.00 0.00 0.00 0.00 0.00 0.00 0.00 0.00 0.00 0.00 0.00 0.00 0.00 0.00 0.00 0.00 0.00 0.00 0.00 0.00 0.00 0.00 0.00 0.00 0.00 0.00 0.00 0.00 0.00 0.00 0.00 0.00 0.00 0.00 0.00 0.00 0.01 0.01 0.00 0.00 0.00 0.00
0.00 0.00 0.00 0.00 0.00 0.00 0.00 0.00 0.00 0.00 0.00 0.00 0.00 0.00 0.00 0.00 0.00 0.00 0.00 0.00 0.00 0.00 0.00 0.00 0.00 0.00 0.00 0.00 0.00 0.00 0.00 0.00 0.00 0.00 0.00 0.00 0.00 0.00 0.00 0.00 0.00 0.00 0.00
0.01 0.00 0.00 0.00 0.00 0.00 0.00 0.00 0.00 0.00 0.00 0.00 0.00 0.00 0.00 0.00 0.00 0.00 0.00 0.00 0.00 0.00 0.00 0.00 0.00 0.00 0.00 0.00 0.00 0.00 0.00 0.00 0.00 0.00 0.00 0.00 0.00 0.00 0.00 0.00 0.00 0.00 0.00
0.11 0.05 0.01 0.00 0.00 0.00 0.00 0.00 0.00 0.00 0.00 0.00 0.00 0.00 0.00 0.00 0.00 0.00 0.00 0.00 0.00 0.00 0.00 0.00 0.00 0.00 0.00 0.00 0.00 0.00 0.00 0.00 0.00 0.00 0.00 0.00 0.00 0.00 0.00 0.00 0.00 0.00 0.00
0.10 0.05 0.01 0.01 0.00 0.00 0.00 0.00 0.00 0.00 0.00 0.00 0.00 0.00 0.00 0.00 0.00 0.00 0.00 0.00 0.00 0.00 0.00 0.00 0.00 0.00 0.00 0.00 0.00 0.00 0.00 0.00 0.00 0.00 0.00 0.00 0.00 0.00 0.00 0.00 0.00 0.00 0.00
0.02 0.00 0.00 0.02 0.00 0.00 0.00 0.00 0.00 0.00 0.00 0.00 0.00 0.00 0.00 0.00 0.00 0.00 0.00 0.00 0.00 0.00 0.00 0.00 0.00 0.00 0.00 0.00 0.00 0.00 0.00 0.00 0.00 0.00 0.00 0.00 0.00 0.00 0.00 0.00 0.00 0.00 0.00
0.13 0.00 0.00 0.00 0.01 0.00 0.00 0.00 0.00 0.00 0.00 0.00 0.00 0.00 0.01 0.00 0.00 0.00 0.00 0.00 0.00 0.00 0.00 0.00 0.00 0.00 0.00 0.00 0.00 0.00 0.00 0.00 0.00 0.00 0.00 0.00 0.00 0.00 0.00 0.00 0.00 0.00 0.00
0.30 0.34 0.12 0.03 0.03 0.01 0.00 0.00 0.00 0.00 0.00 0.00 0.00 0.00 0.02 0.08 0.02 0.00 0.00 0.00 0.01 0.00 0.00 0.00 0.00 0.00 0.00 0.00 0.00 0.00 0.00 0.00 0.00 0.00 0.00 0.00 0.00 0.00 0.00 0.00 0.00 0.00 0.00
0.09 0.31 0.48 0.26 0.08 0.05 0.00 0.00 0.00 0.00 0.00 0.00 0.00 0.00 0.04 0.20 0.06 0.01 0.00 0.00 0.01 0.00 0.01 0.00 0.00 0.00 0.00 0.00 0.00 0.00 0.00 0.00 0.00 0.00 0.00 0.00 0.00 0.00 0.00 0.00 0.00 0.00 0.00
0.13 0.21 0.19 0.15 0.08 0.06 0.04 0.00 0.00 0.00 0.00 0.01 0.00 0.00 0.23 0.18 0.07 0.01 0.01 0.00 0.03 0.02 0.01 0.01 0.00 0.00 0.00 0.00 0.00 0.00 0.00 0.00 0.00 0.00 0.00 0.00 0.00 0.00 0.00 0.00 0.00 0.00 0.00
0.06 0.14 0.22 0.16 0.20 0.17 0.11 0.02 0.00 0.00 0.01 0.02 0.01 0.06 0.13 0.12 0.09 0.01 0.02 0.02 0.12 0.06 0.02 0.01 0.00 0.00 0.00 0.00 0.00 0.00 0.00 0.00 0.00 0.00 0.00 0.00 0.00 0.00 0.00 0.00 0.00 0.00 0.00
0.03 0.10 0.11 0.15 0.20 0.17 0.11 0.04 0.01 0.02 0.04 0.12 0.25 0.16 0.04 0.01 0.07 0.04 0.01 0.03 0.10 0.09 0.03 0.02 0.00 0.00 0.00 0.00 0.00 0.00 0.00 0.00 0.00 0.00 0.00 0.00 0.00 0.00 0.00 0.00 0.00 0.00 0.00
0.01 0.02 0.01 0.02 0.04 0.02 0.01 0.01 0.00 0.03 0.05 0.14 0.23 0.10 0.09 0.06 0.05 0.09 0.04 0.05 0.12 0.15 0.05 0.01 0.00 0.00 0.00 0.00 0.00 0.00 0.00 0.00 0.00 0.00 0.00 0.00 0.00 0.00 0.00 0.00 0.00 0.00 0.00
0.01 0.02 0.02 0.02 0.02 0.04 0.03 0.00 0.00 0.00 0.01 0.05 0.13 0.13 0.11 0.16 0.25 0.13 0.10 0.14 0.13 0.05 0.01 0.00 0.00 0.01 0.00 0.00 0.00 0.00 0.00 0.00 0.00 0.00 0.00 0.00 0.00 0.00 0.00 0.00 0.00 0.00 0.00
0.01 0.02 0.02 0.02 0.04 0.03 0.02 0.01 0.01 0.00 0.00 0.00 0.00 0.01 0.02 0.04 0.10 0.06 0.07 0.03 0.04 0.04 0.04 0.05 0.05 0.04 0.03 0.00 0.00 0.00 0.00 0.00 0.00 0.00 0.00 0.00 0.00 0.00 0.00 0.00 0.00 0.00 0.00
0.00 0.00 0.00 0.00 0.00 0.00 0.00 0.01 0.00 0.01 0.01 0.02 0.00 0.00 0.00 0.00 0.02 0.07 0.08 0.09 0.10 0.11 0.07 0.08 0.04 0.02 0.02 0.01 0.00 0.00 0.00 0.00 0.00 0.00 0.00 0.00 0.00 0.00 0.00 0.00 0.00 0.00 0.00
0.00 0.00 0.00 0.00 0.00 0.00 0.00 0.00 0.00 0.00 0.01 0.01 0.01 0.00 0.00 0.00 0.00 0.00 0.02 0.05 0.06 0.04 0.05 0.06 0.03 0.02 0.02 0.01 0.00 0.00 0.00 0.00 0.00 0.00 0.00 0.00 0.00 0.00 0.00 0.00 0.00 0.00 0.00
0.00 0.00 0.00 0.00 0.00 0.00 0.00 0.00 0.00 0.00 0.00 0.00 0.00 0.00 0.00 0.00 0.00 0.00 0.01 0.01 0.03 0.06 0.07 0.12 0.09 0.04 0.02 0.01 0.00 0.00 0.00 0.00 0.00 0.00 0.00 0.00 0.00 0.00 0.00 0.00 0.00 0.00 0.00
0.00 0.00 0.00 0.00 0.00 0.01 0.00 0.00 0.00 0.00 0.00 0.00 0.00 0.00 0.00 0.00 0.00 0.00 0.01 0.00 0.01 0.03 0.05 0.07 0.06 0.05 0.02 0.00 0.00 0.00 0.00 0.00 0.00 0.00 0.00 0.00 0.00 0.00 0.00 0.00 0.00 0.00 0.00
0.00 0.00 0.00 0.00 0.01 0.01 0.00 0.00 0.00 0.01 0.00 0.00 0.00 0.00 0.00 0.00 0.00 0.00 0.00 0.00 0.00 0.01 0.01 0.01 0.01 0.01 0.00 0.00 0.00 0.00 0.00 0.00 0.00 0.00 0.00 0.00 0.00 0.00 0.00 0.00 0.00 0.00 0.00
0.00 0.00 0.00 0.00 0.00 0.00 0.00 0.00 0.01 0.01 0.02 0.00 0.00 0.00 0.01 0.00 0.00 0.00 0.00 0.00 0.00 0.00 0.00 0.00 0.00 0.00 0.01 0.00 0.00 0.00 0.00 0.00 0.00 0.00 0.00 0.00 0.00 0.00 0.00 0.00 0.00 0.00 0.00
0.00 0.01 0.01 0.00 0.00 0.00 0.00 0.00 0.00 0.01 0.01 0.02 0.01 0.01 0.01 0.00 0.00 0.00 0.00 0.00 0.00 0.00 0.01 0.01 0.00 0.00 0.02 0.09 0.05 0.02 0.03 0.00 0.00 0.00 0.00 0.00 0.00 0.00 0.00 0.00 0.00 0.00 0.00
0.00 0.01 0.00 0.00 0.00 0.00 0.00 0.00 0.00 0.00 0.00 0.01 0.02 0.02 0.01 0.01 0.01 0.02 0.03 0.03 0.02 0.01 0.01 0.01 0.00 0.00 0.02 0.06 0.11 0.07 0.01 0.00 0.00 0.00 0.00 0.00 0.00 0.00 0.00 0.00 0.00 0.00 0.00
0.00 0.00 0.00 0.00 0.00 0.00 0.00 0.00 0.00 0.01 0.00 0.00 0.01 0.02 0.03 0.02 0.03 0.03 0.03 0.02 0.02 0.04 0.03 0.02 0.02 0.02 0.01 0.01 0.03 0.03 0.02 0.02 0.00 0.00 0.00 0.00 0.00 0.00 0.00 0.00 0.00 0.00 0.00
0.00 0.00 0.00 0.00 0.01 0.01 0.01 0.01 0.01 0.00 0.01 0.01 0.01 0.01 0.01 0.02 0.02 0.02 0.02 0.02 0.01 0.02 0.02 0.02 0.02 0.01 0.02 0.01 0.00 0.01 0.01 0.01 0.00 0.00 0.00 0.00 0.00 0.00 0.00 0.00 0.00 0.00 0.00
0.00 0.00 0.00 0.00 0.00 0.01 0.01 0.01 0.01 0.01 0.01 0.01 0.01 0.01 0.02 0.01 0.01 0.01 0.01 0.01 0.01 0.01 0.00 0.00 0.01 0.01 0.00 0.01 0.03 0.07 0.04 0.01 0.01 0.00 0.00 0.00 0.00 0.00 0.00 0.00 0.00 0.00 0.00
MSLP
1012.06 1012.43 1013.00 1013.32 1013.46 1013.82 1014.17 1014.35 1014.47 1014.41 1014.20 1014.10 1014.23 1014.23 1014.30 1014.62 1014.84 1015.05 1015.21 1015.43 1015.64 1015.92 1016.05 1016.20 1016.41 1016.40 1016.38 1016.34 1016.21 1016.22 1016.46 1016.49 1017.15 1017.37 1017.04 1017.39 1017.70 1017.90 1018.24 1018.06 1018.03 1017.95 1017.56
1011.49 1011.77 1012.05 1012.47 1012.97 1013.46 1013.63 1013.74 1014.08 1014.27 1014.15 1013.99 1014.04 1014.07 1014.17 1014.38 1014.73 1014.91 1015.15 1015.19 1015.54 1015.81 1015.94 1016.30 1016.48 1016.70 1016.83 1016.73 1016.53 1016.43 1016.42 1016.54 1017.08 1017.65 1017.82 1017.99 1018.20 1018.33 1018.38 1018.44 1018.25 1018.11 1017.90
1011.96 1012.07 1011.89 1011.99 1012.35 1012.60 1012.93 1013.22 1013.40 1013.77 1013.85 1013.74 1013.83 1013.79 1013.89 1014.07 1014.32 1014.66 1014.83 1015.08 1015.41 1015.63 1015.90 1016.18 1016.59 1016.77 1017.17 1017.10 1016.84 1016.69 1016.65 1016.76 1017.23 1017.80 1018.38 1018.29 1018.57 1018.63 1018.77 1018.87 1018.86 1018.49 1018.25
1012.12 1011.84 1012.04 1011.58 1011.49 1011.67 1012.04 1012.55 1012.85 1012.97 1013.47 1013.37 1013.33 1013.45 1013.51 1013.73 1013.91 1014.23 1014.70 1015.08 1015.34 1015.70 1015.93 1016.19 1016.49 1016.79 1017.12 1017.29 1017.07 1017.18 1017.16 1017.53 1017.90 1018.27 1018.64 1018.74 1018.78 1018.96 1018.99 1019.37 1019.53 1019.07 1018.63
1012.09 1011.47 1010.98 1011.46 1011.24 1011.26 1011.66 1011.87 1012.19 1012.33 1012.72 1012.88 1012.75 1012.98 1013.09 1013.29 1013.57 1013.96 1014.46 1015.01 1015.43 1015.91 1016.22 1016.49 1016.71 1016.81 1017.00 1017.18 1017.20 1017.49 1017.67 1017.97 1018.36 1018.79 1018.98 1019.10 1019.00 1019.09 1019.31 1019.48 1019.75 1019.73 1019.18
1011.86 1011.00 1010.58 1010.49 1010.94 1010.72 1011.11 1011.36 1011.63 1011.84 1012.22 1012.50 1012.43 1012.45 1012.83 1012.87 1013.01 1013.45 1013.97 1014.78 1015.35 1015.80 1016.44 1016.88 1017.17 1017.22 1017.42 1017.56 1017.66 1017.85 1017.95 1018.29 1018.68 1018.94 1019.02 1019.10 1019.06 1019.11 1019.50 1019.73 1019.82 1020.03 1019.79
1011.13 1010.37 1009.88 1010.15 1010.37 1010.28 1010.41 1010.79 1011.04 1011.31 1011.61 1011.92 1012.02 1012.04 1012.33 1012.40 1012.62 1013.24 1013.64 1014.37 1015.08 1015.70 1016.30 1016.97 1017.44 1017.68 1017.83 1018.16 1018.29 1018.33 1018.52 1018.47 1018.53 1018.66 1018.92 1019.08 1019.09 1019.10 1019.35 1019.96 1020.20 1020.12 1020.19
1010.93 1010.43 1010.29 1009.99 1009.98 1009.87 1010.10 1010.30 1010.27 1010.71 1011.05 1011.28 1011.38 1011.53 1011.74 1012.01 1012.27 1012.89 1013.54 1014.15 1014.96 1015.55 1015.98 1016.66 1017.25 1017.72 1017.87 1018.27 1018.72 1018.91 1019.01 1019.02 1018.90 1018.97 1019.01 1019.04 1019.04 1019.11 1019.37 1019.86 1020.60 1020.67 1020.46
1012.46 1011.35 1010.88 1008.04 1009.28 1009.55 1009.70 1010.07 1009.90 1010.31 1010.52 1010.70 1010.60 1010.81 1011.07 1011.36 1011.84 1012.78 1013.52 1014.23 1014.82 1015.32 1016.10 1016.62 1017.21 1017.69 1017.89 1018.25 1018.88 1019.37 1019.57 1019.46 1019.21 1019.17 1019.04 1018.85 1019.14 1019.21 1019.53 1020.10 1020.72 1020.95 1021.15
1012.57 1012.09 1010.77 1009.45 1008.95 1009.07 1009.25 1009.36 1009.46 1009.69 1009.92 1009.96 1010.06 1010.25 1010.56 1011.12 1011.82 1012.61 1012.98 1013.83 1014.59 1015.22 1015.92 1016.66 1016.97 1017.39 1017.83 1018.31 1018.86 1019.33 1019.78 1019.83 1019.56 1019.53 1019.59 1019.41 1019.49 1019.61 1019.73 1020.14 1020.66 1021.27 1021.30
1012.07 1011.17 1010.39 1009.28 1008.57 1008.89 1009.12 1008.89 1008.98 1009.44 1009.48 1009.53 1009.68 1009.82 1010.35 1010.89 1011.73 1012.29 1012.68 1013.22 1014.01 1014.84 1015.37 1016.08 1016.48 1016.99 1017.57 1018.07 1018.48 1019.06 1019.33 1019.73 1019.97 1019.99 1020.04 1020.01 1019.90 1020.13 1019.90 1020.18 1020.37 1020.78 1021.19
1012.13 1011.60 1010.68 1009.79 1008.94 1008.60 1008.50 1008.73 1008.86 1009.03 1009.25 1009.52 1009.76 1009.80 1009.84 1010.25 1011.08 1012.01 1012.20 1012.55 1013.28 1014.09 1014.75 1015.45 1015.96 1016.48 1017.22 1017.60 1018.16 1018.54 1019.04 1019.73 1019.96 1020.48 1020.61 1020.66 1020.73 1020.64 1020.41 1020.35 1020.55 1020.62 1020.51
1011.94 1011.58 1010.84 1010.03 1009.08 1008.79 1008.85 1008.97 1009.16 1009.44 1009.75 1009.93 1009.85 1009.90 1009.75 1009.94 1010.68 1011.39 1012.01 1012.44 1012.79 1013.51 1014.17 1014.69 1015.43 1016.14 1016.94 1017.44 1017.67 1018.06 1018.77 1019.40 1020.00 1020.47 1020.94 1021.01 1021.04 1020.98 1020.78 1020.57 1020.97 1021.12 1021.24
1012.32 1011.71 1011.19 1010.57 1010.17 1009.93 1009.65 1009.39 1009.71 1010.18 1010.46 1010.54 1010.44 1010.49 1010.76 1010.79 1011.01 1011.66 1012.52 1012.76 1013.02 1013.42 1014.02 1014.74 1015.42 1015.97 1016.27 1016.76 1017.61 1018.18 1018.64 1018.94 1019.45 1020.15 1020.79 1021.18 1021.32 1021.47 1021.33 1021.31 1021.52 1021.83 1021.91
1012.41 1011.96 1011.56 1011.07 1010.68 1010.43 1010.70 1010.96 1010.43 1011.12 1011.21 1011.05 1011.13 1011.17 1011.35 1011.53 1011.94 1012.06 1012.10 1012.25 1012.37 1012.97 1013.83 1014.92 1015.78 1016.14 1016.70 1017.10 1017.33 1017.99 1018.53 1018.89 1019.32 1019.83 1020.50 1021.25 1021.43 1021.82 1021.83 1021.87 1021.93 1022.06 1022.32
1013.04 1012.46 1011.91 1011.34 1011.02 1010.72 1010.82 1010.98 1011.17 1011.64 1011.93 1011.45 1011.79 1011.77 1011.91 1011.93 1011.77 1011.67 1011.74 1011.95 1012.13 1012.59 1013.63 1014.44 1015.37 1016.05 1016.28 1016.76 1017.19 1017.70 1018.03 1018.55 1019.04 1019.51 1020.03 1020.89 1021.31 1021.81 1022.09 1022.38 1022.40 1022.50 1022.60
1013.26 1012.96 1012.40 1012.04 1011.81 1011.47 1011.32 1011.38 1011.62 1012.36 1012.33 1012.36 1012.34 1012.43 1012.32 1012.14 1011.64 1011.61 1011.47 1011.87 1012.34 1012.55 1013.21 1014.12 1014.85 1015.58 1016.05 1016.29 1016.64 1017.13 1017.70 1017.92 1018.29 1019.04 1019.56 1020.22 1020.80 1021.40 1021.94 1022.35 1022.81 1022.95 1022.94
1013.50 1013.22 1012.78 1012.28 1012.28 1012.01 1011.85 1011.71 1011.50 1011.95 1012.42 1012.73 1012.77 1012.60 1012.28 1011.95 1011.65 1011.46 1011.64 1011.82 1012.97 1012.90 1013.22 1014.05 1014.77 1015.27 1015.65 1015.76 1016.07 1016.22 1016.73 1017.31 1017.80 1018.51 1019.13 1019.64 1020.11 1020.61 1021.33 1021.95 1022.22 1022.64 1023.10
1014.00 1013.51 1012.98 1012.65 1012.81 1012.64 1012.42 1012.20 1012.05 1012.31 1012.62 1012.82 1012.73 1012.66 1012.66 1012.38 1012.09 1012.15 1011.94 1011.85 1012.25 1012.66 1013.18 1013.71 1014.32 1014.90 1015.23 1015.20 1015.52 1015.60 1015.88 1016.47 1016.97 1017.59 1018.37 1018.96 1019.36 1019.94 1020.58 1021.16 1021.70 1021.94 1022.46
1014.35 1014.02 1013.41 1013.12 1013.02 1013.05 1013.14 1013.14 1012.85 1012.66 1012.98 1013.27 1013.60 1013.89 1013.46 1013.03 1012.73 1012.56 1012.38 1012.63 1012.72 1012.92 1013.12 1013.43 1013.90 1014.24 1014.55 1014.71 1015.00 1015.03 1015.45 1015.84 1016.32 1016.71 1017.27 1017.99 1018.63 1019.29 1019.86 1020.34 1020.89 1021.45 1021.69
1014.59 1014.43 1013.94 1013.66 1013.57 1013.61 1013.79 1013.76 1013.74 1013.63 1013.79 1014.06 1014.37 1014.46 1013.92 1013.47 1013.41 1013.37 1013.20 1013.20 1013.26 1013.19 1013.27 1013.38 1013.58 1013.75 1014.00 1014.33 1014.52 1014.78 1015.08 1015.30 1015.52 1015.93 1016.41 1016.96 1017.78 1018.45 1018.98 1019.49 1019.90 1020.50 1021.12
1015.11 1014.88 1014.74 1014.45 1014.36 1014.32 1014.47 1014.49 1014.52 1014.60 1014.69 1014.67 1014.81 1014.78 1014.54 1014.32 1014.33 1014.28 1014.25 1014.31 1014.43 1014.28 1013.98 1013.39 1013.31 1013.38 1013.48 1013.69 1014.01 1014.39 1014.90 1015.06 1014.93 1015.13 1015.89 1016.34 1016.82 1017.34 1017.91 1018.53 1019.32 1019.81 1020.31
1015.67 1015.55 1015.40 1015.31 1015.27 1015.03 1015.07 1015.24 1015.10 1015.18 1015.36 1015.40 1015.36 1015.31 1015.27 1015.23 1015.33 1015.31 1015.23 1014.98 1014.80 1014.61 1014.55 1014.16 1013.74 1013.37 1012.87 1013.04 1013.34 1013.60 1014.30 1014.50 1014.38 1014.45 1014.82 1015.40 1016.14 1016.60 1016.95 1017.46 1018.16 1019.03 1019.57
1016.18 1016.24 1016.19 1015.95 1015.99 1015.53 1015.66 1015.99 1015.95 1015.81 1015.97 1016.14 1016.03 1015.97 1015.98 1015.94 1016.09 1016.10 1016.06 1015.76 1015.42 1015.36 1015.27 1014.98 1014.73 1014.32 1013.86 1013.47 1013.49 1013.73 1013.80 1014.01 1014.20 1013.85 1013.99 1014.51 1015.02 1015.66 1016.21 1016.59 1016.94 1017.66 1018.33
1016.84 1016.80 1016.58 1016.30 1016.33 1015.94 1016.17 1016.54 1016.48 1016.38 1016.52 1016.76 1016.74 1016.64 1016.67 1016.61 1016.73 1016.69 1016.62 1016.53 1016.25 1015.98 1015.86 1015.67 1015.39 1015.17 1014.93 1014.86 1014.61 1014.45 1014.64 1014.33 1014.12 1014.06 1013.72 1014.22 1014.68 1015.06 1015.36 1015.83 1016.24 1016.70 1017.41
1017.37 1017.22 1016.78 1016.63 1016.63 1016.66 1016.74 1016.90 1016.99 1017.04 1017.02 1017.41 1017.40 1017.25 1017.33 1017.41 1017.39 1017.29 1017.18 1017.07 1016.90 1016.62 1016.44 1016.31 1016.13 1015.85 1015.74 1015.35 1015.17 1015.00 1014.93 1014.71 1014.22 1014.11 1013.82 1014.09 1014.51 1015.08 1015.56 1015.58 1015.62 1016.00 1016.40
Thickness
5823 5823 5819 5817 5816 5813 5810 5810 5810 5811 5812 5810 5808 5806 5804 5799 5795 5789 5785 5780 5774 5768 5763 5757 5751 5747 5742 5736 5728 5718 5706 5692 5672 5658 5650 5636 5622 5610 5597 5592 5586 5583 5584
5821 5824 5824 5822 5817 5813 5812 5814 5811 5808 5810 5809 5808 5805 5802 5798 5794 5788 5784 5782 5775 5768 5763 5756 5750 5744 5737 5733 5726 5718 5708 5694 5676 5657 5646 5633 5621 5609 5598 5592 5587 5584 5584
5811 5812 5818 5822 5821 5819 5816 5813 5815 5809 5808 5808 5805 5804 5801 5798 5795 5790 5785 5782 5776 5769 5763 5757 5748 5742 5734 5728 5724 5717 5707 5694 5677 5659 5642 5632 5620 5611 5598 5589 5584 5584 5583
5810 5814 5811 5817 5823 5825 5822 5816 5815 5815 5807 5808 5807 5804 5803 5799 5796 5790 5784 5779 5775 5769 5763 5756 5748 5741 5734 5727 5724 5715 5705 5690 5676 5660 5644 5634 5624 5614 5601 5588 5580 5580 5584
5806 5810 5818 5814 5818 5824 5820 5819 5817 5817 5811 5809 5811 5806 5803 5801 5797 5790 5783 5777 5772 5765 5760 5753 5746 5741 5735 5729 5723 5713 5702 5690 5675 5662 5650 5637 5627 5617 5605 5593 5583 5578 5584
5806 5815 5819 5820 5813 5820 5819 5817 5816 5816 5811 5808 5809 5809 5801 5802 5800 5792 5785 5776 5770 5764 5755 5748 5742 5737 5732 5726 5719 5711 5701 5689 5677 5666 5655 5645 5635 5624 5610 5598 5590 5584 5584
5802 5812 5819 5819 5813 5818 5822 5818 5817 5815 5814 5810 5808 5808 5803 5802 5800 5791 5786 5777 5769 5762 5753 5745 5738 5732 5727 5720 5715 5708 5700 5693 5685 5675 5663 5651 5642 5632 5621 5605 5598 5594 5594
5790 5798 5807 5813 5811 5815 5817 5818 5820 5815 5813 5811 5810 5809 5806 5802 5799 5791 5785 5777 5767 5761 5755 5747 5738 5729 5726 5719 5711 5704 5698 5692 5686 5679 5668 5660 5651 5640 5631 5620 5607 5602 5604
5777 5784 5787 5804 5812 5814 5814 5813 5817 5814 5813 5812 5813 5811 5808 5804 5799 5789 5782 5773 5766 5760 5751 5745 5737 5729 5725 5720 5711 5703 5696 5691 5685 5678 5672 5666 5657 5648 5639 5630 5619 5613 5608
5773 5777 5789 5802 5810 5809 5812 5814 5816 5815 5814 5815 5813 5812 5809 5803 5796 5789 5783 5773 5765 5760 5750 5741 5737 5731 5724 5718 5710 5704 5695 5690 5686 5679 5673 5667 5660 5654 5645 5638 5630 5622 5620
5774 5783 5788 5798 5809 5807 5807 5814 5814 5812 5814 5814 5812 5811 5807 5803 5794 5787 5781 5775 5767 5758 5752 5743 5738 5730 5725 5719 5712 5704 5701 5692 5687 5679 5673 5669 5664 5655 5651 5645 5638 5630 5624
5766 5772 5782 5791 5799 5803 5806 5807 5812 5812 5810 5808 5805 5803 5804 5802 5794 5785 5781 5778 5770 5761 5753 5745 5738 5731 5723 5721 5713 5708 5702 5694 5688 5679 5674 5670 5663 5656 5653 5647 5643 5638 5635
5759 5765 5775 5785 5794 5798 5801 5803 5805 5804 5801 5799 5800 5799 5800 5797 5791 5786 5777 5773 5771 5763 5757 5750 5740 5730 5721 5717 5712 5708 5701 5696 5688 5681 5673 5670 5665 5660 5655 5651 5643 5638 5632
5747 5755 5762 5771 5776 5784 5789 5794 5794 5792 5791 5790 5791 5791 5788 5789 5787 5781 5774 5770 5765 5760 5753 5743 5735 5729 5725 5719 5709 5704 5699 5697 5692 5683 5676 5670 5666 5659 5654 5651 5645 5639 5633
5735 5743 5750 5758 5765 5771 5771 5774 5781 5775 5777 5782 5781 5782 5780 5779 5775 5771 5773 5772 5768 5760 5750 5738 5728 5723 5716 5712 5708 5701 5695 5693 5690 5685 5678 5669 5666 5659 5653 5650 5645 5641 5636
5715 5725 5736 5746 5753 5761 5765 5766 5763 5762 5760 5765 5763 5768 5769 5767 5767 5768 5769 5767 5763 5757 5747 5738 5727 5720 5715 5709 5705 5700 5695 5692 5689 5685 5681 5672 5667 5661 5654 5648 5645 5642 5639
5701 5708 5721 5729 5735 5743 5750 5755 5756 5749 5748 5750 5752 5753 5755 5757 5761 5761 5762 5758 5752 5752 5745 5736 5726 5718 5712 5709 5705 5700 5694 5691 5689 5684 5681 5675 5669 5663 5657 5650 5644 5639 5639
5687 5694 5705 5715 5720 5727 5733 5740 5746 5746 5746 5744 5740 5744 5746 5749 5752 5754 5752 5751 5741 5741 5736 5728 5721 5714 5710 5708 5704 5702 5696 5690 5687 5682 5678 5676 5672 5668 5661 5656 5652 5644 5637
5667 5679 5690 5699 5703 5708 5716 5724 5730 5732 5732 5734 5735 5737 5737 5739 5741 5740 5742 5743 5737 5733 5728 5723 5717 5711 5707 5705 5702 5702 5700 5694 5690 5684 5679 5677 5675 5670 5665 5661 5656 5652 5645
5652 5661 5673 5682 5689 5693 5698 5703 5711 5718 5718 5719 5719 5717 5722 5727 5730 5731 5731 5727 5725 5721 5717 5714 5710 5708 5704 5704 5702 5700 5696 5693 5690 5686 5683 5679 5675 5669 5666 5663 5660 5654 5652
5639 5646 5656 5666 5673 5678 5680 5686 5691 5698 5701 5702 5703 5702 5706 5717 5718 5717 5717 5714 5712 5710 5706 5703 5703 5702 5701 5699 5699 5697 5695 5692 5690 5688 5684 5680 5676 5673 5669 5666 5664 5660 5654
5623 5631 5638 5647 5655 5660 5664 5668 5673 5677 5681 5686 5689 5692 5694 5699 5699 5699 5698 5696 5693 5693 5694 5701 5702 5701 5700 5698 5697 5695 5690 5689 5692 5690 5684 5680 5679 5678 5675 5671 5664 5661 5658
5607 5615 5622 5628 5635 5644 5649 5652 5658 5662 5665 5669 5673 5678 5680 5682 5682 5682 5683 5685 5687 5688 5688 5691 5695 5698 5699 5697 5695 5694 5691 5690 5692 5692 5690 5686 5679 5677 5677 5675 5671 5662 5659
5591 5598 5605 5613 5619 5629 5633 5635 5640 5646 5649 5652 5657 5661 5665 5667 5667 5668 5669 5673 5677 5677 5678 5680 5682 5686 5690 5690 5691 5691 5691 5689 5689 5691 5689 5686 5683 5678 5677 5676 5676 5668 5663
5574 5582 5591 5601 5606 5615 5618 5621 5626 5631 5634 5636 5641 5645 5649 5652 5654 5655 5657 5660 5664 5668 5670 5671 5673 5675 5676 5676 5679 5681 5682 5685 5683 5684 5685 5681 5679 5678 5677 5674 5672 5671 5665
5561 5568 5579 5589 5596 5600 5605 5608 5613 5617 5620 5621 5625 5630 5632 5635 5638 5641 5644 5647 5651 5655 5658 5660 5661 5664 5664 5668 5670 5673 5674 5676 5678 5679 5679 5679 5676 5671 5668 5668 5667 5667 5665